Regional Weather Roundup
Issued by NWS Northern Indiana

Home | Current Version | Previous Version | Text Only | Print | Product List | Glossary On
Versions: 1 2 3 4 5 6 7 8 9 10 11 12 13 14 15 16 17 18 19 20 21 22 23 24 25 26 27 28 29 30 31 32 33 34 35 36 37 38 39 40 41 42 43 44 45 46 47 48 49 50
000
ASUS43 KIWX 071400
RWRIWX

KIWX WEATHER ROUNDUP
NATIONAL WEATHER SERVICE NORTHERN INDIANA
900 AM EST SUN FEB 07 2016

NOTE: "FAIR" INDICATES FEW OR NO CLOUDS BELOW 12,000 FEET WITH NO
SIGNIFICANT WEATHER AND/OR OBSTRUCTIONS TO VISIBILITY.

* THESE STATIONS ARE NOT UNDER NWS QUALITY CONTROL. THEY ALSO MAY NOT
  REPORT WEATHER SUCH AS PRECIPITATION OR FOG.

INZ001>027-071500-
NORTHERN INDIANA

CITY           SKY/WX    TMP DP  RH WIND       PRES   REMARKS
GARY*          PTSUNNY   39  28  65 S18       29.88F
SOUTH BEND     MOSUNNY   36  27  69 SW12      29.90F
ELKHART*       MOSUNNY   36  27  69 SW6       29.92F
GOSHEN         CLOUDY    35  27  72 S12       29.91F WCI  27
FORT WAYNE     MOSUNNY   35  27  72 S12       29.97F WCI  27
PERU/GRISSOM   MOSUNNY   36  28  71 SW10      29.95F

$$
INZ028>050-071500-
CENTRAL INDIANA

CITY           SKY/WX    TMP DP  RH WIND       PRES   REMARKS
LAFAYETTE      MOSUNNY   36  26  67 S6        29.96F
KOKOMO*          N/A     36  27  69 SW14      29.97F
MUNCIE*        SUNNY     38  23  55 SW8       30.01R
INDIANAPOLIS   MOSUNNY   38  23  55 S8        30.01R

$$
MIZ043>046-050>051-056>058-064>065-071>073-077>080-071500-
SOUTHWEST LOWER MICHIGAN

CITY           SKY/WX    TMP DP  RH WIND       PRES   REMARKS
BATTLE CREEK   CLOUDY    35  27  72 S13       29.89F WCI  26
BENTON HARBOR  CLOUDY    38  29  70 S14       29.86F
COLDWATER*     CLOUDY    36  28  73 S6        29.91F
HILLSDALE*     MOSUNNY   32  26  80 S8        29.91F WCI  24
HOLLAND        CLOUDY    37  29  72 S12       29.84F
GRAND RAPIDS   PTSUNNY   36  29  75 S9        29.85F
KALAMAZOO      MOSUNNY   35  27  72 S10       29.89F WCI  27
STURGIS*       CLOUDY    34  28  77 SW8       29.90F WCI  27
THREE RIVERS*  FAIR      33  29  84 S7        29.90F WCI  27

$$
OHZ001>008-015>018-024>025-071500-
NORTHWEST OHIO

CITY           SKY/WX    TMP DP  RH WIND       PRES   REMARKS
DEFIANCE       MOSUNNY   35  26  69 S10       29.97F WCI  27
FINDLAY        MOSUNNY   36  27  69 S10       29.99F
TOLEDO EXPRESS CLOUDY    33  25  72 S6        29.96F WCI  28
TOLEDO METCALF MOSUNNY   36  26  67 S12       29.99F
LIMA           MOSUNNY   36  25  64 S10       30.00F

$$
AND FOR LAKE MICHIGAN COASTAL AND OPEN LAKE BUOY OBSERVATIONS

STATION/POSITION TEMP    WIND        PRES    VSBY  WAVE
                 AIR SEA DIR/SP/G                  HT/PER
                 (F)     (DEG/KT/KT) (MB)    (MI)  (FT/S)
CALUMET HARBOR    39     200/ 13/ 18 1011.2F
MICHIGAN CITY     38     160/ 14/ 17   N/A
BURNS HARBOR      38     190/ 14/ 22 1012.9F
SAINT JOSEPH      38     160/  5/ 13 1013.2S

$$
&&



USA.gov is the U.S. government's official web portal to all federal, state and local government web resources and services.